Regional Weather Roundup
Issued by NWS Sioux Falls, SD

Home | Current Version | Previous Version | Graphics & Text | Print | Product List | Glossary On
Versions: 1 2 3 4 5 6 7 8 9 10 11 12 13 14 15 16 17 18 19 20 21 22 23 24 25 26 27 28 29 30 31 32 33 34 35 36 37 38 39 40 41 42 43 44 45 46 47 48 49 50
192
ASUS43 KFSD 120510
RWRFSD

WEATHER ROUNDUP FOR SE SOUTH DAKOTA/SW MINNESOTA/NW IOWA
NATIONAL WEATHER SERVICE SIOUX FALLS SD
1100 PM CST THU FEB 11 2016

NOTE: "FAIR" INDICATES FEW OR NO CLOUDS BELOW 12,000 FEET WITH NO
SIGNIFICANT WEATHER AND OR OBSTRUCTIONS TO VISIBILITY.


SDZ038>040-050-052>070-120600-
SOUTHEAST SOUTH DAKOTA

CITY           SKY/WX    TMP DP  RH WIND       PRES   REMARKS
BROOKINGS      CLOUDY    15  13  91 NW5       30.21R WCI   8
CHAMBERLAIN    CLOUDY    25  23  93 N6        30.24F WCI  18
HURON          CLOUDY    20  15  81 N13       30.27R WCI   7
MADISON        CLOUDY    16  16 100 NW6       30.22R WCI   7
MITCHELL       CLOUDY    20  17  88 W5        30.27R WCI  13
SIOUX FALLS    LGT SNOW  10   7  87 NW6       30.23R WCI   0
WINNER         FAIR      27  23  85 CALM      30.22S
YANKTON        CLOUDY    18  12  79 NW5       30.25R WCI  11
$$

MNZ071-072-080-081-089-090-097-098-120600-
SOUTHWEST MINNESOTA

CITY           SKY/WX    TMP DP  RH WIND       PRES   REMARKS
FAIRMONT       CLOUDY    12   7  79 W5        30.21S WCI   4
JACKSON        CLOUDY    12   9  85 W8        30.20F WCI   1
LUVERNE        CLOUDY    12   9  85 CALM      30.23R
MARSHALL       MIX PCPN  17  14  88 NW10      30.23S WCI   5
MONTEVIDEO     FLURRIES  16  10  79 N6        30.26S WCI   7
PIPESTONE      CLOUDY    16   9  73 NW6       30.21R WCI   7
REDWOOD FALLS  CLOUDY    17  13  84 NW8       30.23S WCI   7
TRACY          FLURRIES  17  14  86 NW7       30.22R WCI   8
WINDOM         CLEAR      7   5  92 CALM      30.20S
WORTHINGTON    CLOUDY    10   7  85 W10       30.20S WCI  -3
$$

IAZ001>003-012>014-020>022-031-032-NEZ013-014-SDZ071-120600-
NORTHWEST IOWA

CITY           SKY/WX    TMP DP  RH WIND       PRES   REMARKS
CHEROKEE       CLOUDY    14  13  96 CALM      30.23S
DENISON        CLOUDY    16  14  93 CALM      30.20R
ESTHERVILLE    CLOUDY    13  10  88 W8        30.21S WCI   2
LE MARS        CLOUDY    18  18 100 CALM      30.24S
ORANGE CITY    CLOUDY    12  12 100 CALM      30.22R
SHELDON        CLOUDY    10   9  92 N3        30.21S
SIOUX CITY     CLOUDY    20  15  81 CALM      30.24S
SPENCER        CLOUDY     8   4  83 W5        30.21F WCI   0
STORM LAKE     CLOUDY    12  12 100 SW7       30.20S WCI   2
$$

ABBREVIATIONS USED IN REMARKS
   TC - TEMPERATURE IN CELSIUS
  WCI - WIND CHILL INDEX
   HX - HEAT INDEX
  VSB - VISIBILITY





USA.gov is the U.S. government's official web portal to all federal, state and local government web resources and services.